User: anonymous   Login
Location: ?????
(30.2541°N, 31.0910°E)
Time: 16:37:40
(UTC+00:00)
Language:

Cosmos 1346 Rocket - Orbit

View from above orbital plane
View from above orbital plane
View from above satellite
View from above satellite

Ground track
Ground track

The orbit data is extracted from the following two-line orbital elements,

1 13121U 82027B   23027.83922980  .00004509  00000-0  26505-3 0  9991
2 13121  81.1962 281.8858 0012354 126.7210 233.5153 15.11429184225963
Epoch (UTC): 27 January 2023 20:08:29
Eccentricity: 0.0012354
inclination: 81.1962°
perigee height: 523 km
apogee height: 540 km
right ascension of ascending node: 281.8858°
argument of perigee: 126.7210°
revolutions per day: 15.11429184
mean anomaly at epoch: 233.5153°
orbit number at epoch: 22596

The dashed part of the orbit path shows where the satellite is in the earth's shadow,  

DLR